Weather History for Vancouver, WA

Change the Weather History Date:

Saturday, December 29, 2012

  Actual Average Record
Temperature  
Mean Temperature 34 °F 40 °F  
Max Temperature 41 °F 46 °F 62 °F (1917)
Min Temperature 26 °F 34 °F 16 °F (1916)
Degree Days  
Heating Degree Days 31    
Month to date heating degree days 641  
Since 1 July heating degree days 1482  
Cooling Degree Days 0    
Month to date cooling degree days 0  
Year to date cooling degree days 398  
Moisture  
Dew Point 30 °F    
Average Humidity 78    
Maximum Humidity 92    
Minimum Humidity 64    
Precipitation  
Precipitation 0.01 in 0.21 in 2.22 in (1937)
Month to date precipitation 7.66 6.36  
Year to date precipitation 45.98 38.73  
Snow  
Snow 0.00 in - - ()
Month to date snowfall 0.0  
Snow Depth 0.00 in    
Sea Level Pressure  
Sea Level Pressure 30.20 in    
Wind  
Wind Speed 1 mph (ENE)    
Max Wind Speed 7 mph    
Max Gust Speed 9 mph    
Visibility 10 miles    
Events Rain    
T = Trace of Precipitation, MM = Missing Value Source: NWS Daily Summary

Daily Weather History Graph

Daily Weather History Graph

Search for Another Location

Airport:

Trip Planner

Search our weather history database for the weather conditions in past years. The results will help you decide how hot, cold, wet, or windy it might be!

Date:

Astronomy

Dec. 29, 2012 Rise Set
Actual Time 7:50 AM PST 4:35 PM PST
Civil Twilight 7:16 AM PST 5:09 PM PST
Nautical Twilight 6:39 AM PST 5:47 PM PST
Astronomical Twilight 6:03 AM PST 6:23 PM PST
Moon 6:19 PM PST (12/29) 8:22 AM PST (12/29)
Length of Visible Light 9h 52m
Length of Day
8h 44m
Full, 98% of the Moon is Illuminated
Dec 29
Full
Jan 4
Last Quarter
Jan 11
New
Jan 18
First Quarter
Jan 26
Full

Hourly Weather History & Observations

Time (PST) Temp. Windchill Dew Point Humidity Pressure Visibility Wind Dir Wind Speed Gust Speed Precip Events Conditions
12:53 AM 35.1 °F 31.0 °F 27.0 °F 72% 30.19 in 10.0 mi SE 4.6 mph - N/A   Clear
1:53 AM 30.9 °F - 26.1 °F 82% 30.19 in 10.0 mi Calm Calm - N/A   Clear
2:53 AM 28.0 °F - 25.0 °F 88% 30.20 in 10.0 mi Calm Calm - N/A   Clear
3:53 AM 28.0 °F - 25.0 °F 88% 30.21 in 10.0 mi Calm Calm - N/A   Mostly Cloudy
4:53 AM 27.0 °F - 25.0 °F 92% 30.21 in 10.0 mi Calm Calm - N/A   Clear
5:53 AM 27.0 °F - 24.1 °F 89% 30.22 in 10.0 mi Calm Calm - N/A   Mostly Cloudy
6:53 AM 28.9 °F - 27.0 °F 92% 30.22 in 10.0 mi Calm Calm - N/A   Mostly Cloudy
7:53 AM 28.0 °F - 26.1 °F 92% 30.23 in 10.0 mi Calm Calm - N/A   Partly Cloudy
8:53 AM 32.0 °F - 28.9 °F 88% 30.23 in 10.0 mi Calm Calm - N/A   Overcast
9:53 AM 35.1 °F - 30.0 °F 82% 30.24 in 10.0 mi Calm Calm - N/A   Overcast
10:53 AM 36.0 °F - 30.0 °F 79% 30.24 in 10.0 mi Calm Calm - N/A   Overcast
11:53 AM 37.9 °F - 28.0 °F 68% 30.21 in 10.0 mi Calm Calm - N/A   Overcast
12:53 PM 39.9 °F - 28.9 °F 65% 30.19 in 10.0 mi Calm Calm - N/A   Overcast
1:53 PM 39.9 °F - 28.9 °F 65% 30.18 in 10.0 mi Calm Calm - N/A   Overcast
3:53 PM 39.9 °F - 28.9 °F 65% 30.17 in 10.0 mi Calm Calm - N/A   Overcast
4:00 PM 39.2 °F - 30.2 °F 70% 30.16 in 10.0 mi Calm Calm - N/A   Overcast
4:53 PM 39.0 °F - 30.0 °F 70% 30.17 in 10.0 mi Calm Calm - N/A   Overcast
5:53 PM 39.0 °F - 30.9 °F 73% 30.17 in 10.0 mi Calm Calm - N/A   Overcast
6:53 PM 37.9 °F - 34.0 °F 86% 30.19 in 10.0 mi Calm Calm - 0.00 in Rain Light Rain
7:10 PM 37.4 °F - 33.8 °F 87% 30.19 in 10.0 mi Calm Calm - 0.00 in   Overcast
7:22 PM 37.4 °F - 33.8 °F 87% 30.19 in 10.0 mi Calm Calm - 0.00 in Rain Light Rain
7:53 PM 37.9 °F - 33.1 °F 83% 30.19 in 10.0 mi Calm Calm - 0.00 in Rain Light Rain
8:21 PM 37.4 °F - 33.8 °F 87% 30.18 in 9.0 mi Calm Calm - N/A   Overcast
8:53 PM 37.9 °F 35.5 °F 34.0 °F 86% 30.20 in 10.0 mi North 3.5 mph - N/A   Overcast
9:53 PM 37.9 °F - 35.1 °F 89% 30.20 in 10.0 mi Calm Calm - 0.01 in   Overcast
10:53 PM 37.9 °F 35.5 °F 34.0 °F 86% 30.22 in 6.0 mi East 3.5 mph - N/A   Overcast
11:03 PM 37.4 °F 34.9 °F 33.8 °F 87% 30.22 in 7.0 mi East 3.5 mph - N/A   Overcast
11:22 PM 37.4 °F - 33.8 °F 87% 30.23 in 8.0 mi Calm Calm - N/A   Overcast
11:27 PM 37.4 °F - 33.8 °F 87% 30.23 in 8.0 mi Calm Calm - N/A   Overcast
11:50 PM 37.4 °F - 33.8 °F 87% 30.24 in 8.0 mi Calm Calm - N/A   Overcast
11:53 PM 37.0 °F - 34.0 °F 89% 30.24 in 8.0 mi Calm Calm - N/A   Overcast